Regional Weather Roundup
Issued by NWS

Home | Current Version | Previous Version | Graphics & Text | Print | Product List | Glossary Off
Versions: 1 2 3 4 5 6 7 8 9 10 11 12 13 14 15 16 17 18 19 20 21 22 23 24 25 26 27 28 29 30 31 32 33 34 35 36 37 38 39 40 41 42 43 44 45 46 47 48 49 50

000
ASUS43 KTOP 211659
RWRKS

WEATHER ROUNDUP FOR KANSAS
NATIONAL WEATHER SERVICE GOODLAND KS
1100 AM CST SUN DEC 21 2014

NOTE:  "FAIR" INDICATES FEW OR NO CLOUDS BELOW 12,000 FEET WITH NO
SIGNIFICANT WEATHER AND/OR OBSTRUCTIONS TO VISIBILITY.

KSZ001>006-013>018-027>032-041>047-211800-
NORTHWEST KANSAS

CITY           SKY/WX    TMP DP  RH WIND       PRES   REMARKS
GOODLAND       MOSUNNY   42  28  57 S8        29.70F
HAYS           CLOUDY    41  34  75 S14       29.81F
HILL CITY      CLOUDY    40  37  89 SW12      29.78F FOG     WCI  33
RUSSELL        CLOUDY    41  40  96 S16       29.82F FOG
$$

KSZ061>065-074>080-084>089-211800-
SOUTHWEST KANSAS

CITY           SKY/WX    TMP DP  RH WIND       PRES   REMARKS
DODGE CITY     CLOUDY    41  38  89 S14       29.81F FOG
ELKHART          N/A    N/A N/A N/A MISG        N/A
GARDEN CITY    CLOUDY    39  37  92 S16       29.77F FOG     WCI  30
GREAT BEND     CLOUDY    39  36  87 S15       29.85F WCI  31
LIBERAL        CLOUDY    39  34  81 S16       29.82F WCI  30
$$

KSZ066>073-081>083-090>101-211800-
SOUTHEAST KANSAS

CITY           SKY/WX    TMP DP  RH WIND       PRES   REMARKS
CHANUTE        CLOUDY    44  41  89 S15       30.00F
COFFEYVILLE    CLOUDY    46  42  86 S13       30.01F
HUTCHINSON     CLOUDY    41  39  93 S17       29.89F FOG
MEDICINE LODGE   N/A     41  40  96 S10G17    29.87F
NEWTON         CLOUDY    41  36  81 S17       29.92F
PARSONS        CLOUDY    45  42  89 S14G20    30.02F
WICHITA INTL   LGT RAIN  42  40  92 S12       29.91F VSB 1
WICHITA JABRA  LGT RAIN  42  39  89 S14       29.92F
WICHITA MCCONL CLOUDY    43  39  87 S15       29.93F
WINFIELD       LGT RAIN  43  40  89 S12       29.96F
$$

KSZ007>012-019>026-033>040-048>060-102>105-211800-
NORTHEAST KANSAS

CITY           SKY/WX    TMP DP  RH WIND       PRES   REMARKS
CONCORDIA      CLOUDY    40  39  97 S17G26    29.86F WCI  31
EMPORIA        CLOUDY    40  39  97 S12       29.95F WCI  33
LAWRENCE       CLOUDY    42  38  85 S14       29.98F
MANHATTAN      CLOUDY    42  39  89 S16G24    29.91F
OLATHE IND     CLOUDY    40  38  93 S13       29.99F WCI  32
OLATHE EXE     CLOUDY    41  39  93 S13       29.98F
SALINA         CLOUDY    43  39  86 S13       29.90S
TOPEKA BILLARD CLOUDY   N/A N/A N/A S10       29.96F
TOPEKA FORBES  CLOUDY    43  38  82 S14G23    29.95F
$$


USA.gov is the U.S. government's official web portal to all federal, state and local government web resources and services.